Flag for U.S.A. Weather past 2 weeks in Clearwater, Florida, U.S.A.

Now
81 °F

Clear.


Feels Like: 87 °F
Forecast: 78 / 90 °F
Wind: 7 mph from Northeast

Location: St. Petersburg / Clearwater International Airport

Current Time: Sep 1, 2014 at 4:35:54 AM

Latest Report: Sep 1, 2014 at 3:53 AM


Visibility: 10 mi

Pressure: 30.06 "Hg

Humidity: 82%

Dew point: 75 °F

Location of ClearwaterLocation

Historic Weather in Clearwater — Graph

°F

Clearwater temperature yesterday

Maximum temperature yesterday: 93 °F (at 2:53 PM)
Minimum temperature yesterday: 79 °F (at 12:53 AM)
Average temperature yesterday: 84 °F

Past Weeks' High & Low Weather Summary

 TemperatureHumidityPressure
High95 °F (Aug 21, 3:53 PM)97% (Aug 17, 7:53 AM)30.14 "Hg (Aug 17, 7:53 AM)
Low76 °F (Aug 26, 6:53 AM)41% (Aug 21, 3:53 PM)29.76 "Hg (Aug 24, 5:53 PM)
Average84 °F74%30.00 "Hg
* Reported Aug 17 2:53 AM — Sep 1 2:53 AM, Clearwater, Weather by CustomWeather, © 2014

Note: Actual official high and low records may vary slightly from our data, if they occured in-between our weather recording intervals... More about our weather records

Advertising

Clearwater weather history for previous 24 hours

 ConditionsComfort  
Time TempWeatherWind HumidityBarometerVisibility
2:53 AM
Sep 1
81 °FClear.7 mph82%30.08 "Hg10 mi
1:53 AM82 °FClear.5 mph77%30.10 "Hg10 mi
12:53 AM79 °FClear.No wind84%30.11 "Hg10 mi
11:53 PM
Aug 31
80 °FClear.No wind79%30.11 "Hg10 mi
10:53 PM79 °FClear.3 mph82%30.11 "Hg10 mi
9:53 PM81 °FClear.3 mph72%30.11 "Hg10 mi
8:53 PM80 °FClear.7 mph74%30.10 "Hg10 mi
7:53 PM81 °FBroken clouds.7 mph77%30.07 "Hg10 mi
6:53 PM83 °FThundershowers. Passing clouds.6 mph72%30.06 "Hg10 mi
5:53 PM90 °FPassing clouds.8 mph57%30.04 "Hg10 mi
4:53 PM90 °FScattered clouds.7 mph59%30.04 "Hg10 mi
3:53 PM93 °FSunny.8 mph50%30.06 "Hg10 mi
2:53 PM93 °FPassing clouds.9 mph50%30.08 "Hg10 mi
1:53 PM92 °FPassing clouds.9 mph56%30.10 "Hg10 mi
12:53 PM90 °FSunny.10 mph61%30.11 "Hg10 mi
11:53 AM88 °FSunny.6 mph70%30.12 "Hg10 mi
10:53 AM87 °FSunny.9 mph72%30.13 "Hg10 mi
9:53 AM84 °FSunny.9 mph80%30.12 "Hg10 mi
8:53 AM81 °FSunny.9 mph85%30.11 "Hg10 mi
7:53 AM80 °FClear.7 mph87%30.11 "Hg10 mi
6:53 AM79 °FClear.6 mph88%30.10 "Hg10 mi
5:53 AM79 °FClear.5 mph88%30.09 "Hg10 mi
4:53 AM80 °FClear.6 mph81%30.09 "Hg10 mi
Weather by CustomWeather, © 2014

See weather overviewHow to use our weather pages